period_start,C,m1,H,J0,J1,J2,J3,J4,J5,JA,JB,JC,JD,JJ,JK,JN,#
2014-10-20 00:04:28,0.03,0.07,0.00,23.28,27.42,30.15,4.72,26.63,1018.59,2036.50,3424.07,3313.74,3594.00,349.51,347.34,2.46,0000 0000 0000 0000 000000
2014-10-20 00:09:30,0.02,0.07,0.00,23.28,27.42,30.15,4.84,26.81,1018.59,2036.53,3424.00,3313.30,3593.96,349.73,347.65,2.49,0000 0000 0000 0000 000000
2014-10-20 00:14:31,0.03,0.07,0.00,23.37,27.42,30.15,4.77,26.53,1018.58,2036.53,3423.99,3313.05,3593.84,349.74,347.80,2.52,0000 0000 0000 0000 000000
2014-10-20 00:19:32,-0.00,0.08,0.00,23.31,27.42,30.17,4.71,26.72,1018.60,2036.38,3423.58,3313.00,3593.19,349.40,347.44,2.55,0000 0000 0000 0000 000000
2014-10-20 00:24:34,-0.02,0.07,0.00,23.15,27.42,30.13,4.81,26.63,1018.59,2036.19,3423.06,3312.99,3593.00,350.33,348.43,2.58,0000 0000 0000 0000 000000
2014-10-20 00:29:35,0.07,0.08,0.00,23.03,27.40,30.09,4.79,26.60,1018.59,2036.41,3423.00,3312.97,3593.00,349.56,347.95,2.61,0000 0000 0000 0000 000000
2014-10-20 00:34:36,0.03,0.08,0.00,22.98,27.39,30.02,4.76,26.67,1018.58,2036.67,3422.95,3312.98,3593.00,349.78,348.17,2.64,0000 0000 0000 0000 000000
2014-10-20 00:39:38,0.01,0.08,0.00,23.06,27.37,29.97,4.78,26.84,1018.59,2036.76,3422.85,3312.91,3592.99,349.97,348.39,2.67,0000 0000 0000 0000 000000
2014-10-20 00:44:39,0.02,0.08,0.00,23.21,27.36,29.96,4.80,26.65,1018.60,2036.95,3422.96,3312.94,3592.99,350.39,348.39,2.70,0000 0000 0000 0000 000000
2014-10-20 00:49:40,0.02,0.08,0.00,23.26,27.35,30.02,4.79,26.70,1018.59,2036.95,3422.72,3312.83,3592.97,350.33,348.21,2.73,0000 0000 0000 0000 000000
2014-10-20 00:54:41,0.04,0.08,0.00,23.23,27.35,30.04,4.78,26.70,1018.59,2036.96,3422.06,3312.33,3592.81,350.05,348.18,2.76,0000 0000 0000 0000 000000
2014-10-20 00:59:43,0.03,0.08,0.00,23.25,27.35,30.02,4.75,26.65,1018.59,2036.98,3422.00,3312.04,3592.17,349.96,347.85,2.79,0000 0000 0000 0000 000000
2014-10-20 01:04:44,-0.00,0.08,0.00,23.29,27.35,30.02,4.71,26.64,1018.60,2036.98,3422.00,3312.02,3592.06,349.61,347.60,2.82,0000 0000 0000 0000 000000
2014-10-20 01:09:46,0.01,0.08,0.00,23.28,27.35,30.03,4.73,26.72,1018.59,2036.97,3421.99,3312.00,3592.00,349.50,347.60,2.84,0000 0000 0000 0000 000000
2014-10-20 01:14:47,0.00,0.08,0.00,23.31,27.35,30.05,4.82,26.82,1018.58,2036.96,3421.98,3312.00,3591.99,349.94,347.82,2.87,0000 0000 0000 0000 000000
2014-10-20 01:19:48,0.00,0.08,0.00,23.30,27.35,30.05,4.79,26.75,1018.58,2036.98,3421.96,3312.00,3591.98,350.09,348.02,2.90,0000 0000 0000 0000 000000
2014-10-20 01:24:50,0.00,0.08,0.00,23.29,27.35,30.06,4.77,26.72,1018.59,2036.97,3421.80,3311.99,3591.96,350.10,347.97,2.93,0000 0000 0000 0000 000000
2014-10-20 01:29:51,0.01,0.08,0.00,23.31,27.35,30.05,4.68,26.57,1018.58,2036.96,3421.57,3311.99,3591.87,349.34,347.40,2.96,0000 0000 0000 0000 000000
2014-10-20 01:34:52,0.02,0.08,0.00,23.32,27.35,30.07,4.81,26.73,1018.59,2036.96,3421.23,3311.98,3591.57,350.31,348.29,2.99,0000 0000 0000 0000 000000
2014-10-20 01:39:53,0.02,0.08,0.00,23.30,27.35,30.07,4.79,26.85,1018.57,2036.92,3421.02,3311.67,3591.09,349.56,347.59,3.02,0000 0000 0000 0000 000000
2014-10-20 01:44:54,-0.00,0.08,0.00,23.31,27.35,30.07,4.81,26.68,1018.57,2036.96,3421.00,3311.76,3591.06,350.37,348.52,3.05,0000 0000 0000 0000 000000
2014-10-20 01:49:56,0.01,0.08,0.00,23.33,27.35,30.08,4.76,26.64,1018.57,2036.98,3421.00,3311.70,3591.04,349.34,347.52,3.08,0000 0000 0000 0000 000000
2014-10-20 01:54:57,0.01,0.08,0.00,23.33,27.35,30.07,4.70,26.70,1018.58,2036.98,3421.00,3311.45,3591.01,349.19,347.15,3.11,0000 0000 0000 0000 000000
2014-10-20 01:59:58,0.01,0.08,0.00,23.32,27.35,30.06,4.70,26.66,1018.58,2036.97,3420.98,3311.14,3591.00,349.58,347.55,3.14,0000 0000 0000 0000 000000
2014-10-20 02:05:00,0.01,0.08,0.00,23.31,27.35,30.08,4.76,26.60,1018.57,2036.98,3420.83,3311.04,3590.99,349.99,347.94,3.17,0000 0000 0000 0000 000000
2014-10-20 02:10:01,0.01,0.08,0.00,23.33,27.35,30.07,4.83,26.72,1018.58,2036.98,3420.36,3311.01,3590.99,350.41,348.33,3.20,0000 0000 0000 0000 000000
2014-10-20 02:15:02,0.00,0.08,0.00,23.32,27.35,30.08,4.71,26.73,1018.58,2036.99,3420.01,3311.00,3590.97,349.84,347.70,3.23,0000 0000 0000 0000 000000
2014-10-20 02:20:03,0.00,0.08,0.00,23.34,27.35,30.09,4.79,26.68,1018.58,2036.99,3420.00,3311.00,3590.87,350.08,348.01,3.25,0000 0000 0000 0000 000000
2014-10-20 02:25:05,0.01,0.08,0.00,23.33,27.35,30.08,4.79,26.68,1018.57,2036.99,3419.99,3311.00,3590.54,349.82,347.77,3.28,0000 0000 0000 0000 000000
2014-10-20 02:30:06,0.01,0.09,0.00,23.25,27.35,29.99,4.80,26.68,1018.58,2036.99,3419.91,3310.97,3590.24,350.02,348.10,3.31,0000 0000 0000 0000 000000
2014-10-20 02:35:07,0.03,0.09,0.00,23.09,27.34,30.01,4.78,26.77,1018.58,2036.99,3419.36,3310.81,3589.94,349.79,348.02,3.34,0000 0000 0000 0000 000000
2014-10-20 02:40:09,0.08,0.09,0.00,22.94,27.32,30.03,4.79,26.74,1018.57,2036.99,3418.07,3310.03,3589.13,350.19,348.51,3.37,0000 0000 0000 0000 000000
2014-10-20 02:45:10,0.00,0.09,0.00,22.94,27.31,29.90,4.80,26.57,1018.57,2036.99,3417.99,3309.98,3589.06,349.99,348.33,3.40,0000 0000 0000 0000 000000
2014-10-20 02:50:12,0.00,0.09,0.00,23.16,27.30,29.88,4.80,26.79,1018.57,2036.99,3417.98,3309.98,3589.04,350.46,348.36,3.43,0000 0000 0000 0000 000000
2014-10-20 02:55:13,0.00,0.09,0.00,23.27,27.28,29.87,4.81,26.82,1018.57,2036.99,3417.97,3309.98,3589.01,349.69,347.74,3.46,0000 0000 0000 0000 000000
2014-10-20 03:00:14,0.02,0.09,0.00,23.25,27.27,29.92,4.80,26.68,1018.57,2036.99,3417.60,3309.87,3589.00,350.08,348.04,3.49,0000 0000 0000 0000 000000
2014-10-20 03:05:15,0.03,0.09,0.00,23.13,27.27,29.93,4.72,26.68,1018.57,2036.99,3417.03,3309.31,3588.99,349.52,347.91,3.52,0000 0000 0000 0000 000000
2014-10-20 03:10:17,-0.01,0.09,0.00,23.02,27.26,29.90,4.79,26.63,1018.57,2037.00,3417.00,3309.33,3588.98,349.82,348.07,3.55,0000 0000 0000 0000 000000
2014-10-20 03:15:18,-0.01,0.09,0.00,22.97,27.25,29.87,4.75,26.76,1018.58,2037.00,3417.00,3309.41,3588.98,349.35,347.67,3.58,0000 0000 0000 0000 000000
2014-10-20 03:20:19,0.01,0.09,0.00,23.07,27.23,29.84,4.75,26.73,1018.58,2037.00,3417.00,3309.24,3588.96,349.63,348.01,3.61,0000 0000 0000 0000 000000
2014-10-20 03:25:20,0.00,0.09,0.00,23.25,27.22,29.87,4.75,26.73,1018.57,2037.00,3417.00,3309.18,3588.94,349.64,347.59,3.64,0000 0000 0000 0000 000000
2014-10-20 03:30:21,0.00,0.09,0.00,23.26,27.22,29.88,4.79,26.77,1018.57,2037.00,3417.00,3309.08,3588.80,350.11,348.54,3.66,0000 0000 0000 0000 000000
2014-10-20 03:35:22,0.01,0.09,0.00,23.14,27.22,29.87,4.79,26.73,1018.57,2037.01,3416.96,3309.03,3588.40,349.80,347.98,3.69,0000 0000 0000 0000 000000
2014-10-20 03:40:23,0.02,0.09,0.00,22.98,27.22,29.89,4.88,26.77,1018.57,2037.01,3416.55,3309.01,3588.18,350.53,348.95,3.72,0000 0000 0000 0000 000000
2014-10-20 03:45:24,-0.00,0.09,0.00,22.93,27.20,29.87,4.76,26.63,1018.57,2037.03,3416.80,3309.02,3588.29,350.06,348.42,3.75,0000 0000 0000 0000 000000
2014-10-20 03:50:26,-0.00,0.09,0.00,22.94,27.20,29.82,4.81,26.64,1018.57,2037.03,3416.84,3309.05,3588.23,349.80,348.35,3.78,0000 0000 0000 0000 000000
2014-10-20 03:55:27,0.00,0.09,0.00,23.19,27.18,29.80,4.79,26.66,1018.57,2037.03,3416.74,3309.04,3588.15,350.05,348.04,3.81,0000 0000 0000 0000 000000
2014-10-20 04:00:28,0.00,0.09,0.00,23.26,27.17,29.83,4.77,26.73,1018.57,2037.04,3416.60,3309.01,3588.08,349.78,347.59,3.84,0000 0000 0000 0000 000000
2014-10-20 04:05:30,0.01,0.09,0.00,23.20,27.17,29.84,4.72,26.61,1018.57,2037.09,3416.61,3309.01,3588.07,349.86,348.06,3.87,0000 0000 0000 0000 000000
2014-10-20 04:10:31,0.01,0.09,0.00,23.05,27.17,29.85,4.81,26.78,1018.57,2037.13,3416.36,3309.02,3588.06,349.73,347.97,3.90,0000 0000 0000 0000 000000
2014-10-20 04:15:32,-0.00,0.09,0.00,22.93,27.17,29.87,4.80,26.62,1018.57,2037.09,3416.03,3309.00,3588.02,350.25,348.68,3.93,0000 0000 0000 0000 000000
2014-10-20 04:20:33,0.02,0.09,0.00,22.91,27.15,29.83,4.79,26.60,1018.56,2037.16,3415.99,3309.00,3588.00,350.48,348.81,3.96,0000 0000 0000 0000 000000
2014-10-20 04:25:35,0.02,0.09,0.00,23.08,27.15,29.75,4.74,26.71,1018.55,2037.25,3415.98,3309.00,3588.00,350.07,348.13,3.99,0000 0000 0000 0000 000000
2014-10-20 04:30:36,0.06,0.10,0.00,23.23,27.15,29.78,4.80,26.75,1018.55,2037.68,3415.99,3309.00,3588.00,349.49,347.81,4.02,0000 0000 0000 0000 000000
2014-10-20 04:35:37,0.03,0.10,0.00,23.22,27.15,29.81,4.78,26.84,1018.52,2037.86,3415.96,3309.00,3588.00,349.82,347.84,4.05,0000 0000 0000 0000 000000
2014-10-20 04:40:38,0.00,0.10,0.00,23.13,27.14,29.82,4.83,26.81,1018.48,2037.94,3415.73,3308.99,3588.00,350.38,348.45,4.07,0000 0000 0000 0000 000000
2014-10-20 04:45:40,0.01,0.10,0.00,22.98,27.14,29.82,4.78,26.65,1018.42,2037.95,3415.60,3308.99,3587.99,349.51,347.89,4.10,0000 0000 0000 0000 000000
2014-10-20 04:50:41,0.01,0.10,0.00,22.92,27.13,29.81,4.72,26.66,1018.52,2037.95,3415.16,3308.99,3587.98,349.79,348.28,4.13,0000 0000 0000 0000 000000
2014-10-20 04:55:42,0.00,0.10,0.00,22.99,27.12,29.77,4.72,26.63,1018.55,2037.96,3415.20,3308.98,3587.98,349.93,348.35,4.16,0000 0000 0000 0000 000000
2014-10-20 05:00:43,-0.01,0.10,0.00,23.24,27.12,29.78,4.78,26.80,1018.55,2037.95,3415.43,3308.99,3587.99,349.65,347.69,4.19,0000 0000 0000 0000 000000
2014-10-20 05:05:44,0.00,0.10,0.00,23.27,27.12,29.80,4.72,26.74,1018.53,2037.98,3415.45,3308.99,3587.98,350.00,347.87,4.22,0000 0000 0000 0000 000000
2014-10-20 05:10:45,0.01,0.10,0.00,23.19,27.12,29.81,4.79,26.61,1018.55,2037.98,3415.22,3308.99,3587.98,349.80,347.62,4.25,0000 0000 0000 0000 000000
2014-10-20 05:15:46,0.00,0.10,0.00,22.98,27.12,29.84,4.77,26.65,1018.55,2037.98,3415.01,3308.97,3587.92,349.55,347.97,4.28,0000 0000 0000 0000 000000
2014-10-20 05:20:48,0.01,0.10,0.00,22.89,27.12,29.83,4.83,26.76,1018.55,2037.98,3415.00,3308.95,3587.63,350.18,348.48,4.31,0000 0000 0000 0000 000000
2014-10-20 05:25:49,0.01,0.10,0.00,22.94,27.11,29.81,4.73,26.60,1018.53,2037.98,3414.99,3308.96,3587.33,349.09,347.43,4.34,0000 0000 0000 0000 000000
2014-10-20 05:30:50,0.00,0.10,0.00,23.19,27.10,29.80,4.75,26.79,1018.55,2037.97,3414.99,3308.85,3587.14,349.75,347.92,4.37,0000 0000 0000 0000 000000
2014-10-20 05:35:51,0.01,0.10,0.00,23.24,27.11,29.81,4.77,26.77,1018.55,2037.98,3414.97,3308.70,3587.03,349.85,348.10,4.40,0000 0000 0000 0000 000000
2014-10-20 05:40:53,0.02,0.10,0.00,23.16,27.11,29.82,4.82,26.88,1018.56,2037.96,3414.60,3308.19,3587.00,350.16,348.48,4.43,0000 0000 0000 0000 000000
2014-10-20 05:45:54,0.02,0.10,0.00,23.05,27.11,29.82,4.82,26.76,1018.57,2037.97,3414.45,3308.19,3587.00,350.31,348.42,4.46,0000 0000 0000 0000 000000
2014-10-20 05:50:55,0.01,0.10,0.00,22.98,27.10,29.81,4.69,26.63,1018.57,2037.95,3414.02,3308.05,3587.00,350.05,348.23,4.48,0000 0000 0000 0000 000000
2014-10-20 05:55:57,0.00,0.10,0.00,22.95,27.10,29.76,4.81,26.71,1018.56,2037.97,3414.00,3308.01,3586.99,350.28,348.54,4.51,0000 0000 0000 0000 000000
2014-10-20 06:00:58,0.01,0.10,0.00,23.02,27.10,29.73,4.72,26.74,1018.55,2037.97,3413.99,3308.00,3586.93,349.36,347.72,4.54,0000 0000 0000 0000 000000
2014-10-20 06:05:59,-0.00,0.10,0.00,23.22,27.10,29.77,4.78,26.77,1018.56,2037.98,3413.99,3308.00,3586.91,349.79,347.78,4.57,0000 0000 0000 0000 000000
2014-10-20 06:11:00,0.00,0.10,0.00,23.24,27.10,29.77,4.74,26.75,1018.57,2037.98,3413.98,3308.00,3586.71,349.77,348.19,4.60,0000 0000 0000 0000 000000
2014-10-20 06:16:02,0.01,0.10,0.00,23.20,27.10,29.81,4.84,26.76,1018.57,2037.98,3413.95,3308.00,3586.24,350.49,348.48,4.63,0000 0000 0000 0000 000000
2014-10-20 06:21:03,0.01,0.10,0.00,23.25,27.12,29.83,4.82,26.69,1018.57,2037.99,3413.65,3307.99,3586.05,350.34,348.32,4.66,0000 0000 0000 0000 000000
2014-10-20 06:26:04,0.01,0.10,0.00,23.32,27.12,29.85,4.78,26.69,1018.57,2037.99,3413.42,3307.98,3586.02,350.35,348.13,4.69,0000 0000 0000 0000 000000
2014-10-20 06:31:06,0.00,0.10,0.00,23.32,27.13,29.88,4.77,26.66,1018.59,2037.98,3413.10,3307.97,3586.00,349.21,347.56,4.72,0000 0000 0000 0000 000000
2014-10-20 06:36:07,0.01,0.10,0.00,23.34,27.15,29.87,4.81,26.88,1018.58,2037.96,3413.00,3307.83,3586.00,349.52,347.48,4.75,0000 0000 0000 0000 000000
2014-10-20 06:41:08,0.04,0.10,0.00,23.34,27.15,29.91,4.78,26.84,1018.58,2037.98,3412.85,3307.14,3585.89,349.71,347.75,4.78,0000 0000 0000 0000 000000
2014-10-20 06:46:09,0.04,0.10,0.00,23.23,27.17,29.95,4.69,26.73,1018.58,2037.96,3412.06,3307.01,3585.13,349.67,347.61,4.81,0000 0000 0000 0000 000000
2014-10-20 06:51:10,-0.01,0.10,0.00,23.04,27.17,29.98,4.78,26.77,1018.58,2037.93,3412.00,3306.99,3585.00,349.90,348.17,4.84,0000 0000 0000 0000 000000
2014-10-20 06:56:12,-0.01,0.10,0.00,23.00,27.17,29.94,4.76,26.71,1018.58,2037.90,3411.91,3306.99,3585.00,349.80,348.20,4.87,0000 0000 0000 0000 000000
2014-10-20 07:01:13,0.02,0.10,0.00,23.07,27.16,29.90,4.78,26.65,1018.58,2037.93,3411.95,3306.98,3585.00,349.80,348.29,4.89,0000 0000 0000 0000 000000
2014-10-20 07:06:14,-0.00,0.10,0.00,23.29,27.15,29.86,4.78,26.68,1018.57,2037.94,3411.90,3306.98,3584.99,349.88,348.08,4.92,0000 0000 0000 0000 000000
2014-10-20 07:11:16,0.02,0.10,0.00,23.36,27.16,29.87,4.80,26.69,1018.58,2037.95,3411.53,3306.96,3584.98,349.93,347.96,4.95,0000 0000 0000 0000 000000
2014-10-20 07:16:17,0.00,0.11,0.00,23.25,27.17,29.86,4.77,26.76,1018.58,2037.95,3411.08,3306.92,3584.97,349.70,347.98,4.98,0000 0000 0000 0000 000000
2014-10-20 07:21:18,0.01,0.11,0.00,23.04,27.17,29.93,4.75,26.73,1018.58,2037.96,3411.02,3306.89,3584.96,350.07,348.37,5.01,0000 0000 0000 0000 000000
2014-10-20 07:26:19,0.02,0.11,0.00,23.00,27.16,29.91,4.76,26.74,1018.58,2037.97,3410.99,3306.63,3584.66,349.57,347.94,5.04,0000 0000 0000 0000 000000
2014-10-20 07:31:20,0.03,0.11,0.00,23.10,27.15,29.89,4.78,26.77,1018.57,2037.98,3410.76,3306.21,3584.12,349.80,348.04,5.07,0000 0000 0000 0000 000000
2014-10-20 07:36:21,0.02,0.11,0.00,23.34,27.15,29.91,4.80,26.92,1018.57,2037.97,3410.08,3306.01,3584.00,350.39,348.37,5.10,0000 0000 0000 0000 000000
2014-10-20 07:41:23,0.00,0.11,0.00,23.36,27.15,29.87,4.77,26.73,1018.57,2037.98,3410.00,3305.99,3583.98,350.13,348.07,5.13,0000 0000 0000 0000 000000
2014-10-20 07:46:23,-0.01,0.11,0.00,23.25,27.17,29.90,4.77,26.76,1018.57,2037.96,3409.98,3305.98,3583.95,349.72,347.80,5.16,0000 0000 0000 0000 000000
2014-10-20 07:51:25,0.01,0.11,0.00,23.08,27.17,29.94,4.79,26.68,1018.57,2037.94,3409.83,3305.98,3583.71,349.53,347.97,5.19,0000 0000 0000 0000 000000
2014-10-20 07:56:26,0.04,0.11,0.00,22.97,27.16,29.92,4.85,26.72,1018.57,2037.94,3409.21,3305.93,3583.20,350.22,348.31,5.22,0000 0000 0000 0000 000000
2014-10-20 08:01:27,0.00,0.11,0.00,22.93,27.15,29.90,4.73,26.69,1018.58,2037.94,3409.03,3305.94,3583.09,349.21,347.71,5.25,0000 0000 0000 0000 000000
2014-10-20 08:06:28,0.00,0.11,0.00,22.95,27.15,29.80,4.77,26.79,1018.59,2037.94,3409.01,3305.83,3583.02,349.53,347.90,5.28,0000 0000 0000 0000 000000
2014-10-20 08:11:29,0.00,0.11,0.00,23.18,27.13,29.80,4.71,26.72,1018.59,2037.97,3409.05,3305.95,3583.06,349.66,347.64,5.30,0000 0000 0000 0000 000000
2014-10-20 08:16:30,-0.00,0.11,0.00,23.26,27.13,29.77,4.82,26.77,1018.59,2037.96,3409.02,3305.93,3583.03,350.41,348.26,5.33,0000 0000 0000 0000 000000
2014-10-20 08:21:31,-0.00,0.11,0.00,23.21,27.13,29.79,4.78,26.82,1018.59,2037.96,3409.02,3305.92,3583.03,349.88,347.86,5.36,0000 0000 0000 0000 000000
2014-10-20 08:26:33,0.00,0.11,0.00,23.02,27.13,29.84,4.81,26.78,1018.59,2037.95,3409.00,3305.89,3583.01,350.49,348.68,5.39,0000 0000 0000 0000 000000
2014-10-20 08:31:34,-0.00,0.11,0.00,22.94,27.12,29.83,4.81,26.77,1018.58,2037.95,3409.00,3305.81,3583.01,349.97,348.17,5.42,0000 0000 0000 0000 000000
2014-10-20 08:36:35,0.00,0.11,0.00,22.95,27.12,29.80,4.75,26.69,1018.57,2037.97,3408.99,3305.86,3583.00,349.90,348.46,5.45,0000 0000 0000 0000 000000
2014-10-20 08:41:36,-0.00,0.11,0.00,23.22,27.12,29.80,4.71,26.79,1018.57,2037.98,3408.98,3305.81,3583.01,349.15,347.37,5.48,0000 0000 0000 0000 000000
2014-10-20 08:46:38,-0.00,0.11,0.00,23.27,27.12,29.80,4.82,26.79,1018.57,2037.98,3408.99,3305.97,3583.02,349.98,348.08,5.51,0000 0000 0000 0000 000000
2014-10-20 08:51:39,0.00,0.11,0.00,23.17,27.12,29.82,4.70,26.74,1018.57,2037.96,3408.99,3305.92,3583.01,349.25,347.52,5.54,0000 0000 0000 0000 000000
2014-10-20 08:56:40,0.00,0.11,0.00,22.99,27.12,29.84,4.78,26.72,1018.57,2037.97,3408.99,3305.90,3583.01,349.85,348.17,5.57,0000 0000 0000 0000 000000
2014-10-20 09:01:41,0.00,0.11,0.00,22.92,27.12,29.84,4.82,26.91,1018.57,2037.99,3408.99,3305.96,3583.03,349.72,348.36,5.60,0000 0000 0000 0000 000000
2014-10-20 09:06:42,-0.00,0.11,0.00,22.98,27.10,29.77,4.79,26.88,1018.57,2037.99,3408.99,3305.98,3583.03,349.87,348.16,5.63,0000 0000 0000 0000 000000
2014-10-20 09:11:44,-0.00,0.11,0.00,23.26,27.10,29.79,4.80,26.80,1018.57,2037.99,3408.99,3305.98,3583.09,350.20,348.19,5.66,0000 0000 0000 0000 000000
2014-10-20 09:16:45,0.00,0.11,0.00,23.29,27.10,29.78,4.74,26.71,1018.57,2037.99,3408.99,3305.99,3583.07,349.66,347.44,5.69,0000 0000 0000 0000 000000
2014-10-20 09:21:46,0.00,0.11,0.00,23.18,27.10,29.81,4.80,26.76,1018.57,2037.99,3408.99,3305.98,3583.01,350.46,348.43,5.71,0000 0000 0000 0000 000000
2014-10-20 09:26:47,0.00,0.11,0.00,22.99,27.10,29.85,4.81,26.79,1018.57,2037.99,3408.99,3305.98,3583.01,350.23,348.60,5.74,0000 0000 0000 0000 000000
2014-10-20 09:31:48,0.00,0.11,0.00,22.89,27.10,29.80,4.77,26.75,1018.57,2037.99,3408.99,3305.98,3583.01,349.80,347.98,5.77,0000 0000 0000 0000 000000
2014-10-20 09:36:49,0.00,0.11,0.00,22.94,27.09,29.73,4.82,26.86,1018.57,2037.99,3408.99,3305.99,3583.01,350.56,348.88,5.80,0000 0000 0000 0000 000000
2014-10-20 09:41:51,0.00,0.11,0.00,23.11,27.07,29.74,4.77,26.91,1018.57,2037.99,3408.99,3305.99,3583.02,349.82,348.16,5.83,0000 0000 0000 0000 000000
2014-10-20 09:46:52,0.00,0.11,0.00,23.23,27.07,29.72,4.79,26.80,1018.57,2037.99,3408.99,3305.99,3583.01,349.90,347.91,5.86,0000 0000 0000 0000 000000
2014-10-20 09:51:53,0.00,0.11,0.00,23.24,27.08,29.74,4.80,26.68,1018.57,2037.99,3408.98,3305.98,3583.01,350.02,348.16,5.89,0000 0000 0000 0000 000000
2014-10-20 09:56:54,0.00,0.11,0.00,23.10,27.09,29.78,4.76,26.74,1018.57,2037.99,3408.98,3305.98,3583.00,350.13,348.37,5.92,0000 0000 0000 0000 000000
2014-10-20 10:01:55,0.00,0.11,0.00,22.94,27.09,29.83,4.72,26.75,1018.57,2037.99,3408.95,3305.98,3583.00,349.55,348.21,5.95,0000 0000 0000 0000 000000
2014-10-20 10:06:56,0.00,0.11,0.00,22.94,27.08,29.80,4.79,26.79,1018.57,2037.99,3408.88,3305.98,3583.00,349.59,348.03,5.98,0000 0000 0000 0000 000000
2014-10-20 10:11:58,0.00,0.11,0.00,23.08,27.07,29.77,4.77,26.73,1018.57,2037.99,3408.76,3305.98,3583.00,349.32,347.52,6.01,0000 0000 0000 0000 000000
2014-10-20 10:16:59,-0.00,0.11,0.00,23.25,27.07,29.77,4.74,26.76,1018.57,2037.99,3408.83,3305.98,3583.00,349.22,347.45,6.04,0000 0000 0000 0000 000000
2014-10-20 10:22:00,0.00,0.11,0.00,23.25,27.08,29.77,4.79,26.75,1018.57,2037.99,3408.69,3305.97,3583.00,349.85,347.77,6.07,0000 0000 0000 0000 000000
2014-10-20 10:27:01,0.01,0.11,0.00,23.11,27.09,29.82,4.77,26.78,1018.57,2037.99,3408.50,3305.98,3583.00,350.20,348.45,6.10,0000 0000 0000 0000 000000
2014-10-20 10:32:03,-0.00,0.11,0.00,22.98,27.09,29.85,4.84,26.75,1018.57,2037.99,3408.28,3305.97,3582.99,350.30,348.56,6.12,0000 0000 0000 0000 000000
2014-10-20 10:37:04,0.01,0.11,0.00,22.90,27.08,29.83,4.73,26.74,1018.57,2037.99,3408.18,3305.98,3582.98,349.72,348.30,6.15,0000 0000 0000 0000 000000
2014-10-20 10:42:05,-0.00,0.11,0.00,22.91,27.07,29.74,4.83,26.81,1018.57,2037.99,3408.09,3305.96,3582.99,350.20,348.76,6.18,0000 0000 0000 0000 000000
2014-10-20 10:47:06,-0.00,0.11,0.00,23.12,27.07,29.74,4.79,26.74,1018.58,2037.99,3408.22,3305.98,3582.99,349.31,347.54,6.21,0000 0000 0000 0000 000000
2014-10-20 10:52:07,0.00,0.11,0.00,23.23,27.07,29.75,4.77,26.79,1018.58,2037.99,3408.18,3305.98,3582.99,349.71,347.82,6.24,0000 0000 0000 0000 000000
2014-10-20 10:57:08,0.00,0.11,0.00,23.22,27.07,29.75,4.79,26.77,1018.58,2037.99,3408.05,3305.98,3582.98,350.05,348.33,6.27,0000 0000 0000 0000 000000
2014-10-20 11:02:09,0.00,0.11,0.00,23.09,27.07,29.79,4.78,26.75,1018.59,2037.99,3408.02,3305.97,3582.97,349.87,348.07,6.30,0000 0000 0000 0000 000000
2014-10-20 11:07:11,-0.00,0.11,0.00,22.95,27.07,29.82,4.77,26.88,1018.59,2037.99,3408.01,3305.95,3582.97,350.01,348.68,6.33,0000 0000 0000 0000 000000
2014-10-20 11:12:12,0.00,0.11,0.00,22.94,27.07,29.78,4.75,26.77,1018.58,2037.99,3408.02,3305.97,3582.98,349.29,347.74,6.36,0000 0000 0000 0000 000000
2014-10-20 11:17:13,0.00,0.11,0.00,23.13,27.07,29.79,4.67,26.69,1018.57,2037.99,3408.05,3305.98,3582.99,349.24,347.32,6.39,0000 0000 0000 0000 000000
2014-10-20 11:22:15,0.00,0.11,0.00,23.28,27.07,29.80,4.79,26.80,1018.58,2037.99,3408.03,3305.95,3582.95,349.78,347.69,6.42,0000 0000 0000 0000 000000
2014-10-20 11:27:16,0.00,0.11,0.00,23.25,27.08,29.78,4.77,26.67,1018.58,2037.99,3408.00,3305.94,3582.87,349.82,348.05,6.45,0000 0000 0000 0000 000000
2014-10-20 11:32:17,0.01,0.11,0.00,23.10,27.09,29.81,4.83,26.73,1018.58,2037.99,3408.00,3305.91,3582.82,350.31,348.57,6.48,0000 0000 0000 0000 000000
2014-10-20 11:37:18,0.00,0.11,0.00,22.99,27.09,29.85,4.78,26.85,1018.57,2037.99,3408.00,3305.89,3582.62,350.11,348.42,6.51,0000 0000 0000 0000 000000
2014-10-20 11:42:19,-0.01,0.11,0.00,22.95,27.08,29.82,4.79,26.88,1018.57,2037.98,3408.00,3305.82,3582.47,349.65,347.89,6.53,0000 0000 0000 0000 000000
2014-10-20 11:47:20,0.00,0.11,0.00,22.94,27.07,29.76,4.84,26.71,1018.57,2037.99,3408.00,3305.93,3582.60,350.56,349.04,6.56,0000 0000 0000 0000 000000
2014-10-20 11:52:21,-0.00,0.11,0.00,23.10,27.07,29.74,4.77,26.82,1018.57,2037.99,3408.00,3305.96,3582.80,350.04,348.24,6.59,0000 0000 0000 0000 000000
2014-10-20 11:57:23,-0.00,0.11,0.00,23.20,27.07,29.79,4.77,26.78,1018.57,2037.99,3408.01,3305.99,3582.95,349.82,347.95,6.62,0000 0000 0000 0000 000000
2014-10-20 12:02:23,0.01,0.11,0.00,23.16,27.07,29.80,4.80,26.78,1018.57,2037.99,3408.00,3305.97,3582.83,350.02,348.18,6.65,0000 0000 0000 0000 000000
2014-10-20 12:07:24,-0.00,0.11,0.00,23.02,27.08,29.81,4.80,26.68,1018.57,2037.99,3407.99,3305.98,3582.67,349.89,348.16,6.68,0000 0000 0000 0000 000000
2014-10-20 12:12:25,0.00,0.11,0.00,22.89,27.07,29.82,4.79,26.68,1018.57,2037.99,3407.98,3305.98,3582.66,350.21,348.64,6.71,0000 0000 0000 0000 000000
2014-10-20 12:17:26,0.01,0.11,0.00,22.91,27.07,29.76,4.79,26.67,1018.57,2037.99,3407.98,3305.98,3582.59,350.02,348.45,6.74,0000 0000 0000 0000 000000
2014-10-20 12:22:27,0.01,0.11,0.00,23.15,27.07,29.76,4.79,26.81,1018.57,2037.99,3407.97,3305.94,3582.27,349.94,348.11,6.77,0000 0000 0000 0000 000000
2014-10-20 12:27:28,0.01,0.11,0.00,23.24,27.07,29.78,4.79,26.96,1018.57,2038.00,3407.89,3305.84,3582.13,349.31,347.52,6.80,0000 0000 0000 0000 000000
2014-10-20 12:32:29,-0.00,0.11,0.00,23.20,27.07,29.77,4.75,26.79,1018.57,2038.00,3407.80,3305.77,3582.02,349.13,347.29,6.83,0000 0000 0000 0000 000000
2014-10-20 12:37:31,0.04,0.11,0.00,23.09,27.07,29.78,4.83,26.95,1018.57,2038.00,3407.44,3305.56,3582.01,350.26,348.38,6.86,0000 0000 0000 0000 000000
2014-10-20 12:42:32,-0.01,0.11,0.00,22.99,27.07,29.82,4.79,26.77,1018.57,2037.99,3407.13,3305.38,3582.00,349.54,347.83,6.89,0000 0000 0000 0000 000000
2014-10-20 12:47:33,-0.01,0.11,0.00,22.93,27.07,29.82,4.82,26.98,1018.57,2037.99,3407.28,3305.68,3582.01,350.03,348.47,6.92,0000 0000 0000 0000 000000
2014-10-20 12:52:34,-0.03,0.11,0.00,23.00,27.07,29.75,4.79,26.77,1018.57,2037.99,3407.70,3305.88,3582.01,350.21,348.44,6.94,0000 0000 0000 0000 000000
2014-10-20 12:57:35,0.00,0.11,0.00,23.20,27.07,29.76,4.72,26.87,1018.57,2037.99,3407.96,3305.96,3582.04,349.58,347.52,6.97,0000 0000 0000 0000 000000
2014-10-20 13:02:36,0.00,0.11,0.00,23.22,27.07,29.75,4.78,26.93,1018.56,2037.99,3407.97,3305.95,3582.01,349.73,347.85,7.00,0000 0000 0000 0000 000000
2014-10-20 13:07:38,0.00,0.11,0.00,23.13,27.08,29.79,4.72,26.74,1018.50,2037.99,3407.98,3305.96,3582.01,349.26,347.52,7.03,0000 0000 0000 0000 000000